Dewpoint
28 21 16 19 18 15 11 10 10 25 29 28 28 28 26 26 25 21 20 17 17 17 19 20 21 21 22 22 22 21 23 22 24 23 21 20 20 25 23 27 24 23 23 24
21 19 25 27 26 21 20 17 16 24 25 25 23 25 27 24 23 21 19 15 15 15 16 18 20 20 21 21 21 22 21 22 23 23 24 24 22 24 24 25 23 23 22 24
21 25 27 25 24 20 19 17 16 17 21 20 19 17 24 22 17 14 14 13 13 13 13 13 15 18 18 19 20 21 22 22 21 22 24 22 21 21 21 21 21 22 22 23
22 26 25 25 23 20 18 20 18 17 13 6 16 11 24 20 16 11 9 9 10 11 13 14 15 16 17 18 19 21 21 22 19 21 20 19 19 18 19 20 21 20 20 21
20 22 23 24 22 20 18 23 20 20 17 19 16 15 19 19 15 14 9 8 10 12 13 14 15 16 18 17 17 18 20 20 20 20 20 19 18 19 20 20 19 19 20 21
22 25 25 24 25 24 24 20 20 19 18 17 14 14 17 20 20 16 10 9 10 11 12 14 14 15 16 15 15 17 18 20 20 19 19 19 18 18 18 18 19 19 20 21
19 22 26 26 22 25 22 16 16 17 17 14 12 13 15 16 15 17 10 10 11 12 13 13 12 13 12 13 13 14 17 18 19 18 18 19 18 18 18 18 19 19 19 19
19 18 23 23 23 22 21 18 17 11 17 15 11 10 14 14 13 12 12 12 13 13 12 13 11 11 10 11 13 14 16 17 18 18 18 18 18 18 18 18 18 18 18 19
15 14 19 17 17 18 20 18 18 14 13 9 10 12 13 14 13 12 12 13 14 12 11 10 11 10 11 12 13 15 16 17 17 18 18 18 17 18 18 17 18 18 18 18
13 7 16 18 16 18 18 18 14 14 5 7 13 13 15 13 13 13 12 13 11 11 10 10 11 11 12 13 14 15 17 17 17 17 17 16 18 18 18 18 18 18 18 19
14 8 10 12 14 13 15 14 13 13 13 9 7 10 15 16 15 13 12 10 9 9 9 10 10 11 11 12 13 16 18 18 18 18 17 17 16 17 17 18 18 18 19 19
15 10 8 7 5 5 6 10 12 9 6 9 9 12 13 13 14 12 10 10 11 10 10 9 10 10 11 12 14 14 15 16 16 17 17 17 17 17 17 17 17 18 18 19
13 9 9 9 8 8 3 4 5 10 12 8 7 8 12 11 11 12 11 10 10 11 10 9 8 9 11 12 13 14 16 16 15 14 14 14 15 17 18 18 18 18 18 18
17 12 10 11 11 11 7 6 6 7 10 10 9 11 11 10 12 12 11 10 10 10 11 9 9 9 10 12 12 12 12 13 14 15 15 14 15 15 16 18 18 18 18 18
15 11 13 12 13 13 12 9 9 6 8 10 11 9 9 10 9 7 9 10 9 9 5 6 7 7 8 9 10 11 12 12 13 12 13 15 16 16 16 16 17 18 19 18
13 10 11 11 13 9 9 11 11 10 9 6 5 4 4 8 8 8 9 9 9 3 3 4 6 7 7 7 7 8 10 11 12 13 13 14 14 15 16 16 16 17 17 18
12 12 11 10 4 2 5 5 7 8 11 8 4 5 6 8 10 9 9 9 4 3 4 4 5 6 7 7 8 9 10 11 12 13 13 13 14 14 15 16 16 16 16 17
14 12 11 9 5 2 10 12 12 10 10 7 10 10 7 8 9 6 7 3 3 4 4 5 6 6 7 8 8 9 11 11 11 12 12 13 14 14 15 16 16 17 17 18
11 12 10 7 6 6 8 10 8 3 3 4 7 8 9 8 5 1 5 4 4 4 5 6 6 7 7 8 9 11 11 11 11 11 12 13 14 15 16 17 17 19 20 21
10 14 12 8 3 0 3 8 11 4 -1 7 9 8 7 5 -0 2 5 5 5 6 6 6 7 7 7 8 11 11 11 11 11 12 14 14 15 16 17 18 19 21 22 23
9 10 8 8 5 6 8 8 12 -6 -1 11 8 6 5 3 3 4 5 4 6 6 6 7 6 7 8 10 10 10 11 10 12 14 15 15 15 17 18 20 21 22 23 23
7 8 7 9 5 2 9 8 3 6 10 8 7 6 5 4 5 5 5 5 5 5 5 6 6 8 9 8 9 9 9 12 13 14 14 15 16 18 20 21 23 22 23 20
5 9 9 9 8 13 10 8 9 9 8 6 6 4 5 5 5 5 6 5 5 5 5 5 7 7 6 7 7 8 9 11 14 13 14 15 17 18 21 22 22 22 20 20
8 9 7 8 10 9 9 10 8 7 7 6 5 5 5 5 5 6 5 5 5 5 5 7 6 5 5 5 7 8 10 12 13 13 14 16 17 19 21 20 23 22 20 20
7 8 8 7 7 10 9 8 7 7 7 6 6 5 5 5 6 5 5 5 5 5 8 5 5 5 5 6 7 8 11 12 13 13 15 16 18 20 20 20 22 21 22 24
10 11 8 4 8 9 7 9 8 7 7 6 6 6 6 6 5 6 5 6 6 5 5 5 4 5 5 6 6 8 11 12 13 14 15 17 18 20 18 20 20 22 23 26
Lifted_Index
7 6 6 7 7 7 7 6 6 8 9 8 8 8 8 9 10 10 10 10 11 13 16 18 20 21 22 22 21 21 20 20 20 19 19 18 19 19 20 21 21 21 21 21
7 6 7 8 8 7 7 6 6 7 8 8 8 8 8 9 10 10 10 10 11 13 15 17 19 21 21 21 21 21 20 20 20 20 20 20 20 20 20 21 21 21 22 22
7 7 8 8 7 7 7 6 6 7 7 8 8 7 8 9 10 10 10 11 12 13 15 17 19 20 21 21 21 21 21 21 21 21 21 21 20 20 20 20 21 21 21 22
7 8 8 7 7 7 6 7 7 7 6 6 6 6 7 9 9 10 10 11 12 14 16 17 18 19 20 20 21 21 21 21 21 22 21 21 20 20 20 20 21 21 21 21
7 8 7 7 7 7 7 7 7 7 6 5 5 5 6 7 8 9 10 11 13 15 17 18 19 19 20 20 20 20 20 21 21 22 21 21 21 21 21 21 21 21 21 22
7 8 8 8 8 8 8 7 6 5 4 4 4 5 5 7 8 9 10 11 13 15 17 18 19 19 20 20 20 20 20 21 21 21 21 21 21 21 21 22 22 22 22 22
6 6 7 8 7 7 7 5 4 3 2 3 4 5 6 8 9 10 11 12 13 15 16 17 19 19 20 20 20 21 20 20 21 21 21 21 22 22 22 22 22 23 23 23
4 5 6 8 7 7 6 5 4 2 2 3 5 6 7 9 10 11 12 12 13 14 16 17 18 19 20 20 20 20 20 20 21 21 21 22 22 22 23 23 23 24 24 24
4 5 7 8 8 8 7 6 5 4 3 3 5 6 8 9 10 10 11 12 13 14 15 17 18 19 19 20 20 20 20 21 21 22 22 23 23 23 24 24 24 24 25 25
6 6 7 8 9 9 8 7 6 5 3 2 4 6 7 8 8 9 10 11 12 14 16 17 18 18 19 19 20 21 21 22 22 23 23 24 24 24 24 24 24 25 25 25
7 6 6 7 8 9 8 8 7 6 4 3 3 5 7 8 8 8 9 11 13 15 16 17 18 18 19 20 21 21 22 22 23 24 24 24 24 24 24 24 24 24 23 23
8 7 5 6 8 9 9 8 7 6 5 4 4 5 7 8 8 9 10 12 14 16 17 17 18 19 20 21 21 22 23 23 24 24 24 24 24 24 23 22 22 21 20 20
8 7 5 5 7 8 8 8 8 7 6 4 4 5 7 8 9 10 12 14 15 16 17 17 18 19 20 21 22 22 23 23 23 24 23 23 22 21 20 19 18 17 17 16
9 7 5 5 6 7 7 8 8 8 6 4 4 5 7 9 10 11 13 15 16 16 17 18 19 20 20 21 21 22 22 23 23 22 21 20 18 17 16 16 15 15 15 15
9 7 6 6 6 7 7 7 7 6 5 4 5 6 8 9 11 12 14 15 15 16 17 18 19 19 20 21 21 22 22 22 21 19 18 16 15 14 14 14 14 14 14 14
8 6 5 6 6 6 6 7 6 6 5 5 6 7 9 11 12 13 14 14 15 16 17 18 19 19 20 20 21 21 20 20 18 16 15 14 13 13 13 13 13 13 13 13
7 6 5 5 5 5 6 6 6 6 7 7 8 9 11 12 13 14 14 15 16 17 18 18 19 19 20 20 20 19 18 17 15 14 13 13 13 13 13 13 13 13 14 14
7 6 4 4 4 4 6 7 7 7 8 9 10 11 12 13 14 14 15 16 17 18 18 19 19 19 20 20 19 17 16 15 13 12 12 12 13 13 13 13 14 14 15 15
9 7 4 3 3 4 6 8 9 8 9 11 12 13 14 14 14 15 16 17 18 18 19 19 20 20 20 19 18 16 14 13 12 12 12 13 13 13 13 14 15 15 16 16
9 7 4 3 3 4 7 9 10 9 9 12 14 14 15 15 14 15 17 18 18 19 19 20 20 19 19 17 16 14 13 12 12 12 12 13 13 14 14 15 16 16 16 16
6 5 4 3 3 4 8 11 11 10 10 13 15 15 16 15 16 16 17 18 18 19 19 19 18 17 16 16 15 13 12 12 12 12 13 13 14 15 15 16 17 17 17 17
4 4 4 4 4 6 9 11 11 12 13 15 16 16 16 16 17 17 18 18 18 18 18 18 17 15 15 14 14 13 12 12 12 13 13 13 14 15 16 17 17 17 17 17
5 5 5 6 7 9 11 13 13 14 15 15 16 16 16 16 17 17 17 18 18 18 17 16 15 14 13 13 13 12 12 12 12 13 13 14 14 15 16 17 17 18 18 18
7 8 7 8 9 11 12 14 15 15 16 16 16 16 16 16 16 17 17 17 17 16 16 15 14 13 13 13 13 12 12 12 13 13 13 14 14 15 16 17 18 18 18 18
9 8 8 9 11 12 13 14 15 16 16 16 16 16 16 16 16 16 16 16 16 15 15 14 13 13 13 13 12 12 12 13 13 13 13 14 15 16 16 17 17 18 18 19
9 8 8 10 12 13 14 15 15 16 16 16 16 16 16 16 16 16 16 15 15 14 14 14 13 13 13 13 12 12 12 13 13 13 14 14 15 16 16 17 17 17 18 19